Back to catalog

CZ-3C DEB

AliveHEO
NORAD 40171·DEBRIS·🇨🇳 China

Launched Oct 31, 2010 from Xichang Satellite Launch Center

Loading…

Next Passes (next 24 hours)

TLE

AgingSource: Space-Track

Epoch: Sep 3, 2026, 04:42 UTC

1 40171U 10057Z   26246.19589375  .00029197  00000-0  37566-2 0  9990
2 40171  21.8651 188.4079 3917156 235.5707  81.0579  7.51272023218938

Track CZ-3C DEB in real time with AllMySat

Download on the App Store